Regional Weather Roundup
Issued by NWS Mobile, AL

Home | Current Version | Previous Version | Text Only | Print | Product List | Glossary On
Versions: 1 2 3 4 5 6 7 8 9 10 11 12 13 14 15 16 17 18 19 20 21 22 23 24 25 26 27 28 29 30 31 32 33 34 35 36 37 38 39 40 41 42 43 44 45 46 47 48 49 50
695
ASUS44 KMOB 290212
RWRMOB
REGIONAL WEATHER ROUNDUP
NATIONAL WEATHER SERVICE MOBILE AL
900 PM CDT THU JUL 28 2016

NOTE: "FAIR" INDICATES FEW OR NO CLOUDS BELOW 12,000 FEET WITH NO
      SIGNIFICANT WEATHER AND/OR OBSTRUCTIONS TO VISIBILITY.

  * THESE STATIONS ARE PART OF THE UNIVERSITY OF SOUTH ALABAMA
    MESONET AND ARE NOT UNDER NWS OR FAA QUALITY CONTROL.

ALZ061>064-290300-
COASTAL ALABAMA

CITY           SKY/WX    TMP DP  RH WIND       PRES   REMARKS
MOBILE REG APT PTCLDY    80  74  81 CALM      30.03R
BROOKLEY FIELD PTCLDY    81  76  84 CALM      30.04R
USA CAMPUS*    NOT AVBL
DOG RIVER*     NOT AVBL


CITY           SKY/WX    TMP DP  RH WIND       PRES   REMARKS
MOUNT VERNON*  NOT AVBL
SARALAND*      NOT AVBL
BAY MINETTE*   NOT AVBL
LOXLEY*        NOT AVBL
ROBERTSDALE*   NOT AVBL
FAIRHOPE*      NOT AVBL
ELBERTA*       NOT AVBL
FOLEY*         NOT AVBL
GRAND BAY*     NOT AVBL
DAUPHIN ISLND* NOT AVBL
BON SCOUR NWR* NOT AVBL
GULF SHORES    PTCLDY    81  78  90 CALM      30.03R

$$

ALZ051>060-290300-
INTERIOR SOUTHWEST AND SOUTH CENTRAL ALABAMA

CITY           SKY/WX    TMP DP  RH WIND       PRES   REMARKS
GREENVILLE     MOCLDY    81  68  64 CALM      30.02R THUNDER
EVERGREEN      PTCLDY    81  72  74 W5        30.02R
CASTLEBERRY*   NOT AVBL
ATMORE*        NOT AVBL
DIXIE*         NOT AVBL
ANDALUSIA/OPP  CLEAR     84  72  67 CALM      30.02R
ANDALUSIA*     NOT AVBL
FLORALA APT    CLEAR     78  72  81 SW3       30.04R
FLORALA*       NOT AVBL

$$

FLZ001>006-290300-
WESTERN FLORIDA PANHANDLE

CITY           SKY/WX    TMP DP  RH WIND       PRES   REMARKS
PENSACOLA      CLEAR     84  75  74 SW8       30.02R
NAS PENSACOLA  PTCLDY    83  76  79 SW3       30.03R
MILTON         PTCLDY    81  75  82 SW5       30.03R
WHTNG S FIELD  CLEAR     83  76  79 SW3       30.03R


CITY           SKY/WX    TMP DP  RH WIND       PRES   REMARKS
WALNUT HILL*   NOT AVBL
JAY*           NOT AVBL
DUKE FIELD     PTCLDY    83  75  77 SW8       30.03R
CRESTVIEW      CLEAR     82  74  76 S6        30.04R
VALPARAISO     PTCLDY    84  75  73 SW5       30.03R
DESTIN         PTCLDY    88  78  72 VRB3      30.02R HX 101

$$

MSZ076-079-290300-
INTERIOR SOUTHEAST MISSISSIPPI

CITY           SKY/WX    TMP DP  RH WIND       PRES   REMARKS
LEAKESVILLE*   NOT AVBL
AGRICOLA*      NOT AVBL

$$

MARINE OBSERVATIONS

STATION/POSITION TIME  TEMP    WIND        PRES    WAVE
                       AIR SEA DIR/SP/G            HT/PER
                 (UTC) (F)     (DEG/KT/KT) (MB)    (FT/S)
PASCAGOULA       0100   85                   N/A
PETIT BOIS ISLND 0100   85                   N/A
GRAND BAY        0000   87     220/  7     1017.0S
KATRINA CUT      0100   85     240/  8     1016.9R
CEDAR POINT      0100   85     240/  9     1016.3R
E DAUPHIN ISLAND 0100   85     220/  8/ 10 1016.0R
MIDDLE BAY LIGHT 0100   86     230/ 12     1016.3R
USCG MOBILE BAY  0100   84 87                N/A
STATE DOCKS      0100   86 89                N/A
MEAHER PARK      0100   86     230/ 10     1016.3R
WEEKS BAY        0000   86                   N/A
FORT MORGAN      0100   85                   N/A
12 S ORANGE BCH  0150   85 88  210/  6/  8 1016.9R   1/ 6
PENSACOLA BAY    0100   86 88                N/A
64 S DAUPHIN ISL 0100   86 89  170/  8/ 10 1016.0R
67 S FORT MORGAN 0130   84     180/  8     1016.6R

$$

SELECTED LOCATIONS ACROSS THE REGION

CITY           SKY/WX    TMP DP  RH WIND       PRES   REMARKS
NEW ORLEANS    CLOUDY    84  72  67 NW3       30.01S
GULFPORT       PTCLDY    80  73  79 NW5       30.02R
PASCAGOULA AP  PTCLDY    80  79  96 CALM      30.02R
PASCAGOULA*    NOT AVBL
HATTIESBURG    CLOUDY    76  72  87 CALM      30.04R
LAUREL         CLOUDY    72  70  94 S3        30.04R
MERIDIAN       PTCLDY    80  71  74 SW3       30.01R
JACKSON        CLOUDY    78  73  84 CALM      30.00S
MONTGOMERY     PTCLDY    79  73  82 SW3       30.01R
TROY           CLEAR     80  75  84 CALM      30.02R
KINSTON*       NOT AVBL
GENEVA*        NOT AVBL
ASHFORD*       NOT AVBL
DOTHAN         CLEAR     82  74  76 S5        30.05R
PANAMA CITY    PTCLDY    82  75  79 CALM      30.02R

$$





USA.gov is the U.S. government's official web portal to all federal, state and local government web resources and services.